When you browse on this site, cookies collect data to enhance your experience and personalize the content and advertising you see.
Visit our Privacy Policy to learn more. By continuing to use the site, you agree to this use of cookies and data.

Hourly Weather Tarin Kowt

Today, 10 July, Friday

Time Temperature Precipitation Wind Pressure Humidity
00:00 +22°C° 0 mm 1 mps 611 mmHg 11%
01:00 +21°C° 0 mm 1 mps 611 mmHg 11%
02:00 +21°C° 0 mm 1 mps 611 mmHg 12%
03:00 +20°C° 0 mm 1 mps 611 mmHg 13%
04:00 +20°C° 0 mm 1 mps 610 mmHg 14%
05:00 +22°C° 0 mm 1 mps 612 mmHg 13%
06:00 +25°C° 0 mm 2 mps 613 mmHg 12%
07:00 +27°C° 0 mm 2 mps 614 mmHg 11%
08:00 +29°C° 0 mm 2 mps 615 mmHg 10%
09:00 +30°C° 0 mm 2 mps 615 mmHg 10%
10:00 +32°C° 0 mm 2 mps 616 mmHg 10%
11:00 +34°C° 0 mm 2 mps 615 mmHg 8%
12:00 +35°C° 0 mm 2 mps 615 mmHg 7%
13:00 +35°C° 0 mm 1 mps 615 mmHg 6%
14:00 +35°C° 0 mm 1 mps 615 mmHg 6%
15:00 +35°C° 0 mm 1 mps 614 mmHg 6%
16:00 +36°C° 0 mm 1 mps 614 mmHg 6%
17:00 +34°C° 0 mm 2 mps 613 mmHg 7%
18:00 +31°C° 0 mm 2 mps 613 mmHg 8%
19:00 +29°C° 0 mm 2 mps 612 mmHg 8%
20:00 +27°C° 0 mm 2 mps 612 mmHg 9%
21:00 +26°C° 0 mm 1 mps 612 mmHg 10%
22:00 +22°C° 0 mm 0 mps 612 mmHg 11%
23:00 +24°C° 0 mm 1 mps 611 mmHg 12%

Tomorrow, 11 July, Saturday

Time Temperature Precipitation Wind Pressure Humidity
00:00 +23°C° 0 mm 1 mps 611 mmHg 14%
01:00 +23°C° 0 mm 2 mps 611 mmHg 16%
02:00 +21°C° 0 mm 2 mps 611 mmHg 18%
03:00 +21°C° 0 mm 2 mps 611 mmHg 19%
04:00 +20°C° 0 mm 2 mps 611 mmHg 21%
05:00 +22°C° 0 mm 3 mps 612 mmHg 19%
06:00 +25°C° 0 mm 3 mps 613 mmHg 17%
07:00 +27°C° 0 mm 3 mps 613 mmHg 16%
08:00 +29°C° 0 mm 3 mps 614 mmHg 14%
09:00 +30°C° 0 mm 3 mps 614 mmHg 12%
10:00 +33°C° 0 mm 3 mps 615 mmHg 10%
11:00 +34°C° 0 mm 3 mps 614 mmHg 9%
12:00 +36°C° 0 mm 2 mps 614 mmHg 9%
13:00 +37°C° 0 mm 2 mps 614 mmHg 8%
14:00 +37°C° 0 mm 2 mps 613 mmHg 8%
15:00 +37°C° 0 mm 2 mps 613 mmHg 7%
16:00 +37°C° 0 mm 3 mps 612 mmHg 7%
17:00 +35°C° 0 mm 2 mps 612 mmHg 9%
18:00 +31°C° 0 mm 2 mps 611 mmHg 11%
19:00 +29°C° 0 mm 2 mps 610 mmHg 12%
20:00 +28°C° 0 mm 2 mps 610 mmHg 16%
21:00 +26°C° 0 mm 2 mps 611 mmHg 19%
22:00 +25°C° 0 mm 2 mps 611 mmHg 22%
23:00 +25°C° 0 mm 2 mps 611 mmHg 24%

Day after tomorrow, 12 July, Sunday

Time Temperature Precipitation Wind Pressure Humidity
00:00 +24°C° 0 mm 3 mps 610 mmHg 26%
01:00 +22°C° 0 mm 3 mps 610 mmHg 29%
02:00 +21°C° 0 mm 3 mps 610 mmHg 30%
03:00 +21°C° 0 mm 3 mps 610 mmHg 31%
04:00 +20°C° 0 mm 3 mps 609 mmHg 33%
05:00 +21°C° 0 mm 3 mps 610 mmHg 30%
06:00 +24°C° 0 mm 3 mps 611 mmHg 28%
07:00 +25°C° 0 mm 3 mps 612 mmHg 25%
08:00 +27°C° 0 mm 3 mps 612 mmHg 23%
09:00 +29°C° 0 mm 3 mps 613 mmHg 20%
10:00 +31°C° 0 mm 3 mps 613 mmHg 18%
11:00 +33°C° 0 mm 3 mps 613 mmHg 15%
12:00 +35°C° 0 mm 2 mps 613 mmHg 13%
13:00 +36°C° 0 mm 2 mps 613 mmHg 11%
14:00 +37°C° 0 mm 3 mps 613 mmHg 10%
15:00 +37°C° 0 mm 4 mps 613 mmHg 10%
16:00 +37°C° 0 mm 5 mps 613 mmHg 9%
17:00 +35°C° 0 mm 4 mps 612 mmHg 10%
18:00 +33°C° 0 mm 3 mps 611 mmHg 12%
19:00 +29°C° 0 mm 2 mps 610 mmHg 13%
20:00 +28°C° 0 mm 2 mps 610 mmHg 14%
21:00 +26°C° 0 mm 1 mps 610 mmHg 16%
22:00 +25°C° 0 mm 1 mps 610 mmHg 17%
23:00 +24°C° 0 mm 1 mps 610 mmHg 18%

13 July, Monday

Time Temperature Precipitation Wind Pressure Humidity
00:00 +24°C° 0 mm 1 mps 610 mmHg 19%
01:00 +23°C° 0 mm 1 mps 610 mmHg 20%
02:00 +23°C° 0 mm 1 mps 609 mmHg 21%
03:00 +21°C° 0 mm 2 mps 609 mmHg 23%
04:00 +21°C° 0 mm 2 mps 609 mmHg 24%
05:00 +24°C° 0 mm 2 mps 610 mmHg 22%
06:00 +26°C° 0 mm 2 mps 611 mmHg 19%
07:00 +28°C° 0 mm 3 mps 612 mmHg 17%
08:00 +30°C° 0 mm 3 mps 613 mmHg 15%
09:00 +33°C° 0 mm 3 mps 613 mmHg 14%
10:00 +34°C° 0 mm 3 mps 614 mmHg 12%
11:00 +35°C° 0 mm 4 mps 614 mmHg 11%
12:00 +37°C° 0 mm 5 mps 614 mmHg 9%
13:00 +39°C° 0 mm 5 mps 614 mmHg 8%
14:00 +39°C° 0 mm 5 mps 613 mmHg 8%
15:00 +39°C° 0 mm 5 mps 613 mmHg 7%
16:00 +39°C° 0 mm 5 mps 612 mmHg 7%
17:00 +35°C° 0 mm 5 mps 612 mmHg 8%
18:00 +33°C° 0 mm 4 mps 612 mmHg 9%
19:00 +30°C° 0 mm 4 mps 611 mmHg 10%
20:00 +28°C° 0 mm 3 mps 611 mmHg 11%
21:00 +26°C° 0 mm 2 mps 611 mmHg 13%
22:00 +24°C° 0 mm 1 mps 611 mmHg 14%
23:00 +24°C° 0 mm 2 mps 611 mmHg 18%

14 July, Tuesday

Time Temperature Precipitation Wind Pressure Humidity
00:00 +24°C° 0 mm 3 mps 612 mmHg 21%
01:00 +23°C° 0 mm 4 mps 612 mmHg 25%
02:00 +22°C° 0 mm 3 mps 612 mmHg 29%
03:00 +22°C° 0 mm 3 mps 612 mmHg 33%
04:00 +21°C° 0 mm 3 mps 612 mmHg 38%
05:00 +24°C° 0 mm 3 mps 613 mmHg 36%
06:00 +26°C° 0 mm 3 mps 614 mmHg 34%
07:00 +27°C° 0 mm 3 mps 615 mmHg 32%
08:00 +29°C° 0 mm 4 mps 616 mmHg 28%
09:00 +32°C° 0 mm 5 mps 616 mmHg 23%
10:00 +34°C° 0 mm 6 mps 617 mmHg 19%
11:00 +35°C° 0 mm 6 mps 617 mmHg 16%
12:00 +36°C° 0 mm 6 mps 616 mmHg 13%
13:00 +38°C° 0 mm 6 mps 616 mmHg 11%
14:00 +37°C° 0 mm 5 mps 616 mmHg 10%
15:00 +37°C° 0 mm 4 mps 616 mmHg 10%
16:00 +37°C° 0 mm 4 mps 615 mmHg 9%
17:00 +35°C° 0 mm 3 mps 615 mmHg 11%
18:00 +31°C° 0 mm 2 mps 614 mmHg 12%
19:00 +28°C° 0 mm 2 mps 613 mmHg 14%
20:00 +27°C° 0 mm 2 mps 613 mmHg 15%
21:00 +26°C° 0 mm 1 mps 613 mmHg 16%
22:00 +25°C° 0 mm 1 mps 613 mmHg 17%
23:00 +24°C° 0 mm 1 mps 613 mmHg 18%

15 July, Wednesday

Time Temperature Precipitation Wind Pressure Humidity
00:00 +24°C° 0 mm 1 mps 613 mmHg 19%
01:00 +23°C° 0 mm 1 mps 613 mmHg 20%
02:00 +23°C° 0 mm 1 mps 613 mmHg 20%
03:00 +23°C° 0 mm 1 mps 613 mmHg 20%
04:00 +23°C° 0 mm 2 mps 614 mmHg 19%
05:00 +25°C° 0 mm 2 mps 615 mmHg 18%
06:00 +27°C° 0 mm 2 mps 616 mmHg 16%
07:00 +29°C° 0 mm 3 mps 617 mmHg 15%
08:00 +30°C° 0 mm 3 mps 617 mmHg 14%
09:00 +33°C° 0 mm 3 mps 617 mmHg 13%
10:00 +35°C° 0 mm 3 mps 618 mmHg 12%
11:00 +35°C° 0 mm 3 mps 617 mmHg 12%
12:00 +36°C° 0 mm 3 mps 617 mmHg 11%
13:00 +37°C° 0 mm 3 mps 616 mmHg 11%
14:00 +37°C° 0 mm 3 mps 616 mmHg 10%
15:00 +38°C° 0 mm 3 mps 615 mmHg 9%
16:00 +38°C° 0 mm 2 mps 615 mmHg 9%
17:00 +35°C° 0 mm 2 mps 614 mmHg 9%
18:00 +32°C° 0 mm 2 mps 613 mmHg 10%
19:00 +29°C° 0 mm 2 mps 613 mmHg 11%
20:00 +28°C° 0 mm 2 mps 613 mmHg 12%
21:00 +27°C° 0 mm 1 mps 613 mmHg 13%
22:00 +25°C° 0 mm 1 mps 613 mmHg 14%
23:00 +25°C° 0 mm 1 mps 612 mmHg 15%
Show more